Location: Newark
(34.0131°N, 4.3314°W)
Time: 12:24:11
(UTC+00:00)

Explorer 11/Cluster Stage 4 - Pass Details

Date: 25 October 2019
Orbit: 467 x 1259 km, 28.8° (Epoch: 20 November)

Event Time Altitude Azimuth Distance (km) Brightness Sun altitude
Rises 09:31:16 0° 260° (W) 2,573 8.9 31.7°
Reaches altitude 10° 09:33:38 10° 251° (WSW) 1,640 8.1 32.1°
Maximum altitude 09:37:00 34° 185° (S) 773 7.5 32.5°
Drops below altitude 10° 09:40:19 10° 118° (ESE) 1,622 9.5 33.0°
Sets 09:42:39 0° 109° (ESE) 2,538 10.0 33.3°
